Hourly Data Report for October 02, 2017

All times are specified in Local Standard Time (LST). Add 1 hour to adjust for Daylight Saving Time where and when it is observed.

TERRACE A
BRITISH COLUMBIA

54°28'07.000" N
128°34'42.000" W
217.30 m
1068134
71951
YXT

Download Data

Hourly Data (October 2017)
Hourly Data Report for October 2, 2017
Temp Definition
°C
Dew Point Temp Definition
°C
Rel Hum Definition
%
Wind Dir Definition
10's deg

Wind Spd Definition
km/h
Visibility Definition
km
Stn Press Definition
kPa
Hmdx Definition


Wind Chill Definition


Weather Definition


TIME
00:00 Legend Double Dagger 6.8 3.4 79 35 26 24.1 100.37     LegendNANA
01:00 Legend Double Dagger 6.2 2.9 79 35 26 24.1 100.41     Clear
02:00 Legend Double Dagger 5.3 2.7 83 36 21 24.1 100.45     LegendNANA
03:00 Legend Double Dagger 5.1 2.1 81 3 14 24.1 100.51     LegendNANA
04:00 Legend Double Dagger 4.6 1.3 79 15 5 24.1 100.55     Clear
05:00 Legend Double Dagger 4.8 1.2 77 6 11 24.1 100.59     LegendNANA
06:00 Legend Double Dagger 4.4 0.8 78 23 3 32.2 100.68     LegendNANA
07:00 Legend Double Dagger 4.4 0.8 78 36 19 32.2 100.72     Clear
08:00 Legend Double Dagger 5.1 1.1 75 1 22 32.2 100.72     LegendNANA
09:00 Legend Double Dagger 6.6 1.0 67 36 25 32.2 100.74     LegendNANA
10:00 Legend Double Dagger 8.1 1.1 62 36 19 32.2 100.72     Clear
11:00 Legend Double Dagger 9.1 1.3 58 36 22 32.2 100.71     LegendNANA
12:00 Legend Double Dagger 10.8 1.2 51 1 20 32.2 100.66     LegendNANA
13:00 Legend Double Dagger 12.6 1.5 47 1 21 32.2 100.57     Clear
14:00 Legend Double Dagger 13.3 0.4 41 3 21 32.2 100.49     LegendNANA
15:00 Legend Double Dagger 13.9 0.7 40 2 17 32.2 100.44     LegendNANA
16:00 Legend Double Dagger 13.9 1.5 43 34 16 32.2 100.40     Clear
17:00 Legend Double Dagger 13.0 1.1 44 1 18 32.2 100.38     LegendNANA
18:00 Legend Double Dagger 11.1 1.3 51 2 20 32.2 100.37     LegendNANA
19:00 Legend Double Dagger 9.6 2.0 59 1 19 32.2 100.40     Mainly Clear
20:00 Legend Double Dagger 8.7 2.0 63 1 23 32.2 100.42     LegendNANA
21:00 Legend Double Dagger 7.0 2.4 73 1 26 32.2 100.40     LegendNANA
22:00 Legend Double Dagger 5.2 2.4 82 1 12 32.2 100.38     Clear
23:00 Legend Double Dagger 2.6 1.3 91 13 3 32.2 100.36     LegendNANA

Notes on Data Quality.

Legend

  • E = Estimated
  • M = Missing
  • NA = Not Available
  • ‡ = Partner data that is not subject to review by the National Climate Archives
Date modified: